FW9069 Weather Reports


time (UTC)temp
C
wind
direction
speed
KPH
gust
KPH
rain 1hr
cm
rain 24hr
cm
rain mn
cm
humidity
%
barometer
mb
20260904093332 11 16 4.8 8.0 0.05 1.40 0.18 97 1010.3
20260904091824 11 15 6.4 12.9 0.10 1.40 0.18 97 1010.3
20260904090332 11 36 4.8 6.4 0.15 1.40 0.18 97 1010.4
20260904084822 11 31 3.2 8.0 0.15 1.37 0.15 97 1010.4
20260904083334 11 34 4.8 6.4 0.13 1.35 0.13 97 1010.3
20260904081823 11 90 3.2 4.8 0.08 1.30 0.08 97 1010.3
20260904080333 11 122 6.4 11.3 0.03 1.24 0.03 97 1010.3
20260904074827 11 127 6.4 9.7 0.00 1.22 0.00 97 1010.2
20260904073335 11 122 1.6 4.8 0.00 1.22 1.22 97 1010.2
20260904071827 11 125 3.2 8.0 0.00 1.22 1.22 97 1010.3
20260904070339 11 134 4.8 8.0 0.00 1.22 1.22 97 1010.1
20260904064824 11 117 1.6 4.8 0.00 1.22 1.22 97 1010.1
20260904063338 11 61 0.0 3.2 0.00 1.24 1.22 96 1010.1
20260904061829 11 61 1.6 4.8 0.00 1.24 1.22 96 1010.2
20260904060321 11 80 1.6 4.8 0.00 1.24 1.22 96 1010.2
20260904054834 11 116 1.6 4.8 0.00 1.24 1.22 96 1010.1
20260904053343 11 119 1.6 4.8 0.00 1.37 1.22 96 1010.2
20260904051855 11 80 0.0 9.7 0.00 1.37 1.22 96 1010.2
20260904050325 11 94 6.4 9.7 0.00 1.37 1.22 96 1010.3
20260904044836 11 121 4.8 12.9 0.00 1.37 1.22 96 1010.2
20260904043322 11 140 6.4 14.5 0.03 1.37 1.22 96 1010.3
20260904041834 11 102 6.4 8.0 0.03 1.37 1.22 96 1010.2
20260904040325 11 96 4.8 9.7 0.08 1.37 1.22 96 1010.2
20260904034837 11 115 4.8 12.9 0.08 1.37 1.22 96 1010.1
20260904033328 11 131 4.8 8.0 0.05 1.35 1.19 96 1010.0
20260904031819 12 137 6.4 9.7 0.08 1.35 1.19 96 1009.9
20260904030332 12 136 6.4 9.7 0.05 1.30 1.14 96 1010.0
20260904024821 12 102 4.8 19.3 0.10 1.30 1.14 96 1010.2
20260904023332 12 123 9.7 14.5 0.13 1.30 1.14 96 1010.0
20260904021844 12 141 9.7 16.1 0.13 1.27 1.12 95 1009.9
20260904020335 12 115 8.0 14.5 0.13 1.24 1.09 95 1010.0
20260904014823 12 131 6.4 12.9 0.08 1.19 1.04 94 1009.9
20260904013335 12 114 11.3 16.1 0.05 1.17 1.02 94 1010.0
20260904011828 12 129 4.8 17.7 0.03 1.14 0.99 93 1009.9
20260904010320 13 145 8.0 17.7 0.00 1.12 0.97 94 1010.0
20260904004830 13 67 8.0 16.1 0.00 1.12 0.97 95 1009.9
20260904003323 13 109 6.4 12.9 0.00 1.19 0.97 95 1009.9
20260904001832 13 125 6.4 14.5 0.00 1.19 0.97 95 1010.0
20260904000321 13 112 6.4 12.9 0.00 1.19 0.97 95 1010.1
20260903234833 13 111 6.4 14.5 0.03 1.19 0.97 96 1010.0
20260903233351 13 126 6.4 9.7 0.08 1.30 0.97 95 1010.0
20260903231822 13 165 3.2 12.9 0.08 1.30 0.97 96 1010.0
20260903230335 13 123 4.8 8.0 0.08 1.30 0.97 97 1010.0
20260903224825 12 166 1.6 12.9 0.08 1.27 0.94 95 1010.2
20260903223356 12 179 4.8 11.3 0.03 1.52 0.89 94 1010.3
20260903221825 12 185 4.8 12.9 0.05 1.52 0.89 95 1010.4
20260903220339 12 206 4.8 9.7 0.13 1.52 0.89 97 1010.4
20260903214833 11 184 4.8 14.5 0.15 1.50 0.86 96 1010.4
20260903213321 11 131 1.6 14.5 0.20 1.63 0.86 96 1010.7
20260903211854 11 179 1.6 12.9 0.25 1.60 0.84 96 1010.5
20260903210324 11 164 9.7 19.3 0.20 1.52 0.76 95 1010.5
20260903204834 11 173 4.8 12.9 0.20 1.47 0.71 95 1010.4
20260903203325 11 184 4.8 17.7 0.18 1.42 0.66 95 1010.6
20260903201837 12 167 9.7 20.9 0.10 1.35 0.58 94 1010.7
20260903200332 12 194 9.7 35.4 0.08 1.32 0.56 95 1010.6
20260903194823 12 163 6.4 20.9 0.03 1.27 0.51 95 1010.5
20260903193331 13 116 6.4 19.3 0.00 1.40 0.48 94 1010.5
20260903191849 13 176 6.4 19.3 0.00 1.40 0.48 94 1010.6
20260903190320 13 164 4.8 20.9 0.03 1.40 0.48 95 1010.6
20260903184833 13 112 11.3 24.1 0.03 1.40 0.48 96 1010.5
20260903183325 13 147 8.0 20.9 0.03 1.70 0.48 96 1010.5
20260903181846 12 119 9.7 19.3 0.03 1.70 0.48 96 1010.5
20260903180332 12 131 6.4 20.9 0.08 1.68 0.46 96 1010.6
20260903174823 13 119 11.3 20.9 0.23 1.68 0.46 97 1010.5
20260903173330 12 117 11.3 25.7 0.25 1.83 0.46 97 1010.5
20260903171823 12 130 8.0 20.9 0.25 1.83 0.46 96 1010.6
20260903170333 12 102 16.1 29.0 0.15 1.73 0.36 95 1010.5
20260903164823 12 98 11.3 25.7 0.03 1.60 0.23 94 1010.6
20260903163321 12 116 4.8 22.5 0.00 1.57 0.20 94 1010.6
20260903161830 12 123 4.8 20.9 0.00 1.57 0.20 96 1010.7
20260903160352 12 142 8.0 19.3 0.00 1.57 0.20 96 1010.5
20260903154823 12 159 8.0 17.7 0.00 1.57 0.20 96 1010.5
20260903153329 11 141 8.0 19.3 0.00 1.57 0.20 96 1010.5
20260903151823 11 144 11.3 19.3 0.00 1.57 0.20 97 1010.4
20260903150334 11 137 12.9 19.3 0.00 1.57 0.20 97 1010.4
20260903144846 11 115 4.8 17.7 0.03 1.57 0.20 97 1010.5
20260903143342 11 121 4.8 11.3 0.08 1.57 0.20 96 1010.3
20260903141850 11 129 8.0 14.5 0.13 1.57 0.20 96 1010.3
20260903140322 11 123 6.4 19.3 0.20 1.57 0.20 96 1010.3
20260903134833 11 119 8.0 22.5 0.18 1.55 0.18 96 1010.3
20260903131835 11 134 6.4 19.3 0.08 1.45 0.08 96 1010.3
20260903130329 11 121 8.0 14.5 0.00 1.37 0.00 96 1010.1
20260903124834 11 156 6.4 17.7 0.00 1.37 0.00 96 1010.1
20260903123345 11 192 3.2 17.7 0.00 1.37 0.00 96 1010.1
20260903121830 11 127 6.4 22.5 0.00 1.37 0.00 96 1010.2
20260903120322 11 127 9.7 24.1 0.00 1.37 0.00 96 1010.2
20260903114814 11 119 6.4 25.7 0.00 1.37 0.00 96 1010.2
20260903113327 11 151 11.3 20.9 0.00 1.37 0.00 96 1010.3
20260903111820 11 168 4.8 14.5 0.00 1.37 0.00 96 1010.3
20260903110330 11 121 3.2 14.5 0.00 1.37 0.00 96 1010.3
20260903104819 12 98 4.8 16.1 0.00 1.37 0.00 96 1010.4
20260903103327 12 133 8.0 14.5 0.00 1.37 0.00 97 1010.5
20260903100331 12 155 8.0 27.4 0.00 1.37 0.00 97 1010.6
20260903094821 12 111 11.3 19.3 0.00 1.37 0.00 97 1010.4